Flag for U.S.A. Weather past 2 weeks in Irving, Texas, U.S.A.

Now
61 °F

Passing clouds.


Feels Like: 61 °F
Forecast: 51 / 62 °F
Wind: 13 mph from Southwest

Location: Dallas / Fort Worth International Airport

Current Time: Dec 22, 2014 at 11:31:17 AM

Latest Report: Dec 22, 2014 at 10:53 AM


Visibility: 10 mi

Pressure: 29.59 "Hg

Humidity: 54%

Dew point: 44 °F

Location of IrvingLocation

Historic Weather in Irving — Graph

°F

Irving temperature yesterday

Maximum temperature yesterday: 53 °F (at 11:53 PM)
Minimum temperature yesterday: 47 °F (at 12:53 AM)
Average temperature yesterday: 49 °F

Past Weeks' High & Low Weather Summary

 TemperatureHumidityPressure
High70 °F (Dec 12, 2:53 PM)100% (Dec 8, 3:53 AM)30.41 "Hg (Dec 8, 3:53 AM)
Low37 °F (Dec 9, 3:53 AM)30% (Dec 15, 2:53 PM)29.58 "Hg (Dec 22, 6:53 AM)
Average51 °F81%30.14 "Hg
* Reported Dec 7 9:53 AM — Dec 22 9:53 AM, Irving, Weather by CustomWeather, © 2014

Note: Actual official high and low records may vary slightly from our data, if they occured in-between our weather recording intervals... More about our weather records

Advertising

Irving weather history for previous 24 hours

 ConditionsComfort  
Time TempWeatherWind HumidityBarometerVisibility
9:53 AM
Dec 22
59 °FPassing clouds.13 mph69%29.58 "Hg10 mi
8:53 AM55 °FPassing clouds.14 mph83%29.59 "Hg10 mi
7:53 AM50 °FPassing clouds.9 mph93%29.58 "Hg10 mi
6:53 AM50 °FPassing clouds.10 mph89%29.58 "Hg10 mi
5:53 AM49 °FPassing clouds.12 mph90%29.58 "Hg10 mi
4:53 AM50 °FPassing clouds.13 mph86%29.58 "Hg10 mi
3:53 AM52 °FPassing clouds.20 mph83%29.60 "Hg10 mi
2:53 AM52 °FPassing clouds.23 mph83%29.60 "Hg10 mi
1:53 AM53 °FPassing clouds.23 mph83%29.62 "Hg10 mi
12:53 AM53 °FPassing clouds.22 mph86%29.66 "Hg10 mi
11:53 PM
Dec 21
53 °FPassing clouds.14 mph83%29.70 "Hg10 mi
10:53 PM52 °FMostly cloudy.17 mph86%29.73 "Hg10 mi
9:53 PM52 °FMostly cloudy.15 mph83%29.76 "Hg10 mi
8:53 PM51 °FMostly cloudy.16 mph83%29.77 "Hg9 mi
7:53 PM51 °FMostly cloudy.16 mph83%29.79 "Hg10 mi
6:53 PM51 °FOvercast.15 mph80%29.80 "Hg10 mi
5:53 PM51 °FMostly cloudy.16 mph80%29.82 "Hg10 mi
4:53 PM52 °FMostly cloudy.13 mph77%29.84 "Hg10 mi
3:53 PM51 °FMostly cloudy.14 mph80%29.83 "Hg10 mi
2:53 PM51 °FMostly cloudy.15 mph80%29.86 "Hg10 mi
1:53 PM50 °FMostly cloudy.14 mph80%29.90 "Hg10 mi
12:53 PM50 °FMostly cloudy.13 mph80%29.95 "Hg10 mi
11:53 AM50 °FMostly cloudy.16 mph80%30.01 "Hg10 mi
Weather by CustomWeather, © 2014

See weather overviewHow to use our weather pages